,,,PA_Meas_PMT16A,,PR_Meas_QMR101_102,,RH_Meas_QMH101,,SR_Meas_QMS101,,TA_Meas_QMH101,,GenWind,,GenWind,
date,time,status,PA,status,PR,status,RH,status,SR,status,TA,status,DirAvg,status,SpdAvg,
2014-01-29, 00:00:04,VALID,1010.98,VALID,0,VALID,100.271,VALID,0,VALID,22.7199,VALID,309,VALID,0,
2014-01-29, 00:01:04,VALID,1010.96,VALID,0,VALID,100.332,VALID,0,VALID,22.6809,VALID,309,VALID,0,
2014-01-29, 00:02:04,VALID,1010.95,VALID,0,VALID,100.439,VALID,0,VALID,22.6402,VALID,309,VALID,0,
2014-01-29, 00:03:04,VALID,1010.94,VALID,0,VALID,100.568,VALID,0,VALID,22.6614,VALID,309,VALID,0,
2014-01-29, 00:04:04,VALID,1010.94,VALID,0,VALID,100.668,VALID,0.112112,VALID,22.6402,VALID,309,VALID,0,
2014-01-29, 00:05:04,VALID,1010.93,VALID,0,VALID,100.721,VALID,0,VALID,22.6208,VALID,309,VALID,0,
2014-01-29, 00:06:04,VALID,1010.93,VALID,0,VALID,100.828,VALID,0,VALID,22.6208,VALID,309,VALID,0,
2014-01-29, 00:07:04,VALID,1010.92,VALID,0,VALID,100.82,VALID,0,VALID,22.6013,VALID,309,VALID,0,
2014-01-29, 00:08:04,VALID,1010.92,VALID,0,VALID,101.011,VALID,0,VALID,22.5818,VALID,309,VALID,0,
2014-01-29, 00:09:04,VALID,1010.9,VALID,0,VALID,101.194,VALID,0,VALID,22.5623,VALID,309,VALID,0,
2014-01-29, 00:10:04,VALID,1010.9,VALID,0,VALID,101.285,VALID,0,VALID,22.5835,VALID,309,VALID,0,
2014-01-29, 00:11:04,VALID,1010.91,VALID,0,VALID,101.316,VALID,0,VALID,22.5835,VALID,309,VALID,0,
2014-01-29, 00:12:04,VALID,1010.93,VALID,0,VALID,101.308,VALID,0,VALID,22.5835,VALID,309,VALID,0,
2014-01-29, 00:13:04,VALID,1010.91,VALID,0,VALID,101.331,VALID,0.112112,VALID,22.5429,VALID,309,VALID,0,
2014-01-29, 00:14:04,VALID,1010.91,VALID,0,VALID,101.308,VALID,0.112112,VALID,22.5039,VALID,309,VALID,0,
2014-01-29, 00:15:04,VALID,1010.89,VALID,0,VALID,101.423,VALID,0.112112,VALID,22.5039,VALID,309,VALID,0,
2014-01-29, 00:16:04,VALID,1010.88,VALID,0,VALID,101.628,VALID,0.112112,VALID,22.5056,VALID,309,VALID,0,
2014-01-29, 00:17:04,VALID,1010.86,VALID,0,VALID,101.75,VALID,0,VALID,22.4667,VALID,309,VALID,0,
2014-01-29, 00:18:04,VALID,1010.86,VALID,0,VALID,101.926,VALID,0.112112,VALID,22.426,VALID,309,VALID,0,
2014-01-29, 00:19:04,VALID,1010.84,VALID,0,VALID,102.094,VALID,0,VALID,22.426,VALID,309,VALID,0,
2014-01-29, 00:20:04,VALID,1010.82,VALID,0,VALID,102.147,VALID,0.112112,VALID,22.4065,VALID,309,VALID,0,
2014-01-29, 00:21:04,VALID,1010.84,VALID,0,VALID,102.368,VALID,0,VALID,22.387,VALID,309,VALID,0,
2014-01-29, 00:22:04,VALID,1010.84,VALID,0,VALID,102.498,VALID,0,VALID,22.4277,VALID,309,VALID,0,
2014-01-29, 00:23:04,VALID,1010.82,VALID,0,VALID,102.612,VALID,0,VALID,22.4082,VALID,309,VALID,0,
2014-01-29, 00:24:04,VALID,1010.81,VALID,0,VALID,102.574,VALID,0.112112,VALID,22.387,VALID,309,VALID,0,
2014-01-29, 00:25:04,VALID,1010.82,VALID,0,VALID,102.498,VALID,0,VALID,22.3481,VALID,309,VALID,0,
2014-01-29, 00:26:04,VALID,1010.82,VALID,0,VALID,102.627,VALID,0,VALID,22.3286,VALID,309,VALID,0,
2014-01-29, 00:27:04,VALID,1010.82,VALID,0,VALID,102.765,VALID,0.112112,VALID,22.3286,VALID,309,VALID,0,
2014-01-29, 00:28:04,VALID,1010.84,VALID,0,VALID,102.871,VALID,0,VALID,22.3108,VALID,309,VALID,0,
2014-01-29, 00:29:04,VALID,1010.82,VALID,0,VALID,103.016,VALID,0.112112,VALID,22.3108,VALID,309,VALID,0,
2014-01-29, 00:30:04,VALID,1010.82,VALID,0,VALID,103.108,VALID,0.112112,VALID,22.2702,VALID,309,VALID,0,
2014-01-29, 00:31:04,VALID,1010.81,VALID,0,VALID,103.138,VALID,0,VALID,22.2312,VALID,309,VALID,0,
2014-01-29, 00:32:04,VALID,1010.79,VALID,0,VALID,103.268,VALID,0,VALID,22.2118,VALID,309,VALID,0,
2014-01-29, 00:33:04,VALID,1010.82,VALID,0,VALID,103.367,VALID,0.112112,VALID,22.2118,VALID,309,VALID,0,
2014-01-29, 00:34:04,VALID,1010.81,VALID,0,VALID,103.436,VALID,0,VALID,22.1923,VALID,309,VALID,0,
2014-01-29, 00:35:04,VALID,1010.78,VALID,0,VALID,103.542,VALID,0,VALID,22.2134,VALID,309,VALID,0,
2014-01-29, 00:36:04,VALID,1010.8,VALID,0,VALID,103.664,VALID,0,VALID,22.1728,VALID,309,VALID,0,
2014-01-29, 00:37:04,VALID,1010.79,VALID,0,VALID,103.817,VALID,0.112112,VALID,22.1728,VALID,309,VALID,0,
2014-01-29, 00:38:04,VALID,1010.78,VALID,0,VALID,103.848,VALID,0.112112,VALID,22.1533,VALID,309,VALID,0,
2014-01-29, 00:39:04,VALID,1010.78,VALID,0,VALID,103.84,VALID,0,VALID,22.1533,VALID,309,VALID,0,
2014-01-29, 00:40:04,VALID,1010.79,VALID,0,VALID,103.954,VALID,0.112112,VALID,22.1533,VALID,310,VALID,0,
2014-01-29, 00:41:04,VALID,1010.79,VALID,0,VALID,104,VALID,0.112112,VALID,22.1533,VALID,309,VALID,0,
2014-01-29, 00:42:04,VALID,1010.78,VALID,0,VALID,104,VALID,0.112112,VALID,22.1339,VALID,309,VALID,0,
2014-01-29, 00:43:04,VALID,1010.78,VALID,0,VALID,104,VALID,0,VALID,22.1355,VALID,309,VALID,0,
2014-01-29, 00:44:04,VALID,1010.76,VALID,0,VALID,104,VALID,0,VALID,22.1144,VALID,309,VALID,0,
2014-01-29, 00:45:04,VALID,1010.77,VALID,0,VALID,104,VALID,0,VALID,22.1161,VALID,309,VALID,0,
2014-01-29, 00:46:04,VALID,1010.76,VALID,0,VALID,104,VALID,0,VALID,22.1144,VALID,309,VALID,0,
2014-01-29, 00:47:04,VALID,1010.73,VALID,0,VALID,104,VALID,0,VALID,22.1161,VALID,310,VALID,0,
2014-01-29, 00:48:04,VALID,1010.74,VALID,0,VALID,104,VALID,0,VALID,22.0949,VALID,310,VALID,0,
2014-01-29, 00:49:04,VALID,1010.72,VALID,0,VALID,104,VALID,0,VALID,22.1355,VALID,309,VALID,0,
2014-01-29, 00:50:04,VALID,1010.67,VALID,0,VALID,104,VALID,0,VALID,22.0949,VALID,309,VALID,0,
2014-01-29, 00:51:04,VALID,1010.64,VALID,0,VALID,104,VALID,0,VALID,22.1161,VALID,309,VALID,0,
2014-01-29, 00:52:04,VALID,1010.66,VALID,0,VALID,104,VALID,0.112112,VALID,22.0966,VALID,309,VALID,0,
2014-01-29, 00:53:04,VALID,1010.65,VALID,0,VALID,104,VALID,0,VALID,22.0966,VALID,309,VALID,0,
2014-01-29, 00:54:04,VALID,1010.63,VALID,0,VALID,104,VALID,0,VALID,22.0754,VALID,309,VALID,0,
2014-01-29, 00:55:04,VALID,1010.63,VALID,0,VALID,104,VALID,0,VALID,22.0771,VALID,309,VALID,0,
2014-01-29, 00:56:04,VALID,1010.63,VALID,0,VALID,104,VALID,0,VALID,22.0576,VALID,309,VALID,0,
2014-01-29, 00:57:04,VALID,1010.63,VALID,0,VALID,104,VALID,0,VALID,22.0382,VALID,309,VALID,0,
2014-01-29, 00:58:04,VALID,1010.64,VALID,0,VALID,104,VALID,0,VALID,22.0576,VALID,309,VALID,0,
2014-01-29, 00:59:04,VALID,1010.63,VALID,0,VALID,104,VALID,0,VALID,21.9975,VALID,309,VALID,0,
2014-01-29, 01:00:04,VALID,1010.62,VALID,0,VALID,104,VALID,0.112112,VALID,22.0365,VALID,309,VALID,0,
2014-01-29, 01:01:04,VALID,1010.61,VALID,0,VALID,104,VALID,0,VALID,21.9975,VALID,309,VALID,0,
2014-01-29, 01:02:04,VALID,1010.59,VALID,0,VALID,104,VALID,0,VALID,22.0187,VALID,310,VALID,0,
2014-01-29, 01:03:04,VALID,1010.59,VALID,0,VALID,104,VALID,0,VALID,21.9781,VALID,309,VALID,0,
2014-01-29, 01:04:04,VALID,1010.58,VALID,0,VALID,104,VALID,0,VALID,22.017,VALID,310,VALID,0,
2014-01-29, 01:05:04,VALID,1010.59,VALID,0,VALID,104,VALID,0,VALID,21.9975,VALID,309,VALID,0,
2014-01-29, 01:06:04,VALID,1010.57,VALID,0,VALID,104,VALID,0,VALID,21.9781,VALID,309,VALID,0,
2014-01-29, 01:07:04,VALID,1010.6,VALID,0,VALID,104,VALID,0,VALID,22.0187,VALID,309,VALID,0,
2014-01-29, 01:08:04,VALID,1010.59,VALID,0,VALID,104,VALID,0,VALID,21.9781,VALID,309,VALID,0,
2014-01-29, 01:09:04,VALID,1010.57,VALID,0,VALID,104,VALID,0,VALID,21.9975,VALID,310,VALID,0,
2014-01-29, 01:10:04,VALID,1010.58,VALID,0,VALID,104,VALID,0,VALID,21.9975,VALID,309,VALID,0,
2014-01-29, 01:11:04,VALID,1010.57,VALID,0,VALID,104,VALID,0,VALID,22.0187,VALID,309,VALID,0,
2014-01-29, 01:12:04,VALID,1010.56,VALID,0,VALID,104,VALID,0,VALID,21.9975,VALID,310,VALID,0,
2014-01-29, 01:13:04,VALID,1010.52,VALID,0,VALID,104,VALID,0,VALID,22.0365,VALID,309,VALID,0,
2014-01-29, 01:14:04,VALID,1010.54,VALID,0,VALID,104,VALID,0,VALID,22.0771,VALID,309,VALID,0,
2014-01-29, 01:15:04,VALID,1010.52,VALID,0,VALID,104,VALID,0,VALID,22.0754,VALID,309,VALID,0,
2014-01-29, 01:16:04,VALID,1010.51,VALID,0,VALID,104,VALID,0.112112,VALID,22.1144,VALID,309,VALID,0,
2014-01-29, 01:17:04,VALID,1010.49,VALID,0,VALID,104,VALID,0,VALID,22.0949,VALID,309,VALID,0,
2014-01-29, 01:18:04,VALID,1010.49,VALID,0,VALID,104,VALID,0,VALID,22.1144,VALID,309,VALID,0,
2014-01-29, 01:19:04,VALID,1010.49,VALID,0,VALID,103.985,VALID,0,VALID,22.0949,VALID,309,VALID,0,
2014-01-29, 01:20:04,VALID,1010.48,VALID,0,VALID,103.992,VALID,0,VALID,22.1144,VALID,309,VALID,0,
2014-01-29, 01:21:04,VALID,1010.49,VALID,0,VALID,104,VALID,0,VALID,22.0949,VALID,309,VALID,0,
2014-01-29, 01:22:04,VALID,1010.49,VALID,0,VALID,104,VALID,0,VALID,22.1355,VALID,309,VALID,0,
2014-01-29, 01:23:04,VALID,1010.46,VALID,0,VALID,103.962,VALID,0,VALID,22.1355,VALID,309,VALID,0,
2014-01-29, 01:24:04,VALID,1010.46,VALID,0,VALID,103.977,VALID,0,VALID,22.1355,VALID,309,VALID,0,
2014-01-29, 01:25:04,VALID,1010.46,VALID,0,VALID,103.977,VALID,0.112112,VALID,22.1339,VALID,309,VALID,0,
2014-01-29, 01:26:04,VALID,1010.42,VALID,0,VALID,103.726,VALID,0,VALID,22.1355,VALID,309,VALID,0,
2014-01-29, 01:27:04,VALID,1010.42,VALID,0,VALID,103.718,VALID,0,VALID,22.1161,VALID,309,VALID,0,
2014-01-29, 01:28:04,VALID,1010.4,VALID,0,VALID,103.718,VALID,0,VALID,22.0949,VALID,309,VALID,0,
2014-01-29, 01:29:04,VALID,1010.4,VALID,0,VALID,103.649,VALID,0,VALID,22.0365,VALID,309,VALID,0,
2014-01-29, 01:30:04,VALID,1010.36,VALID,0,VALID,103.71,VALID,0,VALID,22.017,VALID,309,VALID,0,
2014-01-29, 01:31:04,VALID,1010.36,VALID,0,VALID,103.909,VALID,0,VALID,21.9992,VALID,309,VALID,0,
2014-01-29, 01:32:04,VALID,1010.36,VALID,0,VALID,104,VALID,0,VALID,21.9781,VALID,309,VALID,0,
2014-01-29, 01:33:04,VALID,1010.34,VALID,0,VALID,104,VALID,0,VALID,21.9781,VALID,309,VALID,0,
2014-01-29, 01:34:04,VALID,1010.31,VALID,0,VALID,104,VALID,0,VALID,21.9391,VALID,309,VALID,0,
2014-01-29, 01:35:04,VALID,1010.29,VALID,0,VALID,104,VALID,0,VALID,21.9213,VALID,309,VALID,0,
2014-01-29, 01:36:04,VALID,1010.28,VALID,0,VALID,104,VALID,0,VALID,21.8807,VALID,309,VALID,0,
2014-01-29, 01:37:04,VALID,1010.28,VALID,0,VALID,104,VALID,0,VALID,21.8629,VALID,309,VALID,0,
2014-01-29, 01:38:04,VALID,1010.23,VALID,0,VALID,104,VALID,0,VALID,21.8418,VALID,309,VALID,0,
2014-01-29, 01:39:04,VALID,1010.24,VALID,0,VALID,104,VALID,0,VALID,21.8239,VALID,309,VALID,0,
2014-01-29, 01:40:04,VALID,1010.24,VALID,0,VALID,104,VALID,0,VALID,21.7833,VALID,309,VALID,0,
2014-01-29, 01:41:04,VALID,1010.22,VALID,0,VALID,104,VALID,0,VALID,21.7639,VALID,309,VALID,0,
2014-01-29, 01:42:04,VALID,1010.25,VALID,0,VALID,104,VALID,0,VALID,21.785,VALID,309,VALID,0,
2014-01-29, 01:43:04,VALID,1010.22,VALID,0,VALID,104,VALID,0.112112,VALID,21.785,VALID,310,VALID,0,
2014-01-29, 01:44:04,VALID,1010.21,VALID,0,VALID,104,VALID,0,VALID,21.7444,VALID,309,VALID,0,
2014-01-29, 01:45:04,VALID,1010.19,VALID,0,VALID,104,VALID,0,VALID,21.7444,VALID,309,VALID,0,
2014-01-29, 01:46:04,VALID,1010.17,VALID,0,VALID,104,VALID,0.112112,VALID,21.7444,VALID,309,VALID,0,
2014-01-29, 01:47:04,VALID,1010.15,VALID,0,VALID,104,VALID,0,VALID,21.7054,VALID,309,VALID,0,
2014-01-29, 01:48:04,VALID,1010.16,VALID,0,VALID,104,VALID,0.112112,VALID,21.6649,VALID,309,VALID,0,
2014-01-29, 01:49:04,VALID,1010.14,VALID,0,VALID,104,VALID,0.112112,VALID,21.6665,VALID,309,VALID,0,
2014-01-29, 01:50:04,VALID,1010.15,VALID,0,VALID,104,VALID,0.112112,VALID,21.6876,VALID,309,VALID,0,
2014-01-29, 01:51:04,VALID,1010.13,VALID,0,VALID,104,VALID,0.112112,VALID,21.6276,VALID,309,VALID,0,
2014-01-29, 01:52:04,VALID,1010.13,VALID,0,VALID,104,VALID,0.112112,VALID,21.6081,VALID,309,VALID,0,
2014-01-29, 01:53:04,VALID,1010.14,VALID,0,VALID,104,VALID,0,VALID,21.5691,VALID,309,VALID,0,
2014-01-29, 01:54:04,VALID,1010.13,VALID,0,VALID,104,VALID,0.112112,VALID,21.5691,VALID,309,VALID,0,
2014-01-29, 01:55:04,VALID,1010.13,VALID,0,VALID,104,VALID,0.112112,VALID,21.5302,VALID,309,VALID,0,
2014-01-29, 01:56:04,VALID,1010.1,VALID,0,VALID,104,VALID,0.112112,VALID,21.4913,VALID,309,VALID,0,
2014-01-29, 01:57:04,VALID,1010.14,VALID,0,VALID,104,VALID,0,VALID,21.4718,VALID,309,VALID,0,
2014-01-29, 01:58:04,VALID,1010.12,VALID,0,VALID,104,VALID,0.112112,VALID,21.4523,VALID,309,VALID,0,
2014-01-29, 01:59:04,VALID,1010.13,VALID,0,VALID,104,VALID,0.112112,VALID,21.4523,VALID,309,VALID,0,
2014-01-29, 02:00:04,VALID,1010.11,VALID,0,VALID,104,VALID,0.112112,VALID,21.4929,VALID,310,VALID,0,
2014-01-29, 02:01:04,VALID,1010.13,VALID,0,VALID,104,VALID,0,VALID,21.4734,VALID,309,VALID,0,
2014-01-29, 02:02:04,VALID,1010.12,VALID,0,VALID,104,VALID,0.112112,VALID,21.4718,VALID,310,VALID,0,
2014-01-29, 02:03:04,VALID,1010.1,VALID,0,VALID,104,VALID,0.112112,VALID,21.4929,VALID,309,VALID,0,
2014-01-29, 02:04:04,VALID,1010.1,VALID,0,VALID,104,VALID,0.112112,VALID,21.4718,VALID,309,VALID,0,
2014-01-29, 02:05:04,VALID,1010.06,VALID,0,VALID,104,VALID,0.112112,VALID,21.4523,VALID,310,VALID,0,
2014-01-29, 02:06:04,VALID,1010.08,VALID,0,VALID,104,VALID,0.112112,VALID,21.4328,VALID,309,VALID,0,
2014-01-29, 02:07:04,VALID,1010.09,VALID,0,VALID,104,VALID,0.112112,VALID,21.4328,VALID,309,VALID,0,
2014-01-29, 02:08:04,VALID,1010.1,VALID,0,VALID,104,VALID,0.112112,VALID,21.4328,VALID,309,VALID,0,
2014-01-29, 02:09:04,VALID,1010.12,VALID,0,VALID,104,VALID,0,VALID,21.4523,VALID,309,VALID,0,
2014-01-29, 02:10:04,VALID,1010.08,VALID,0,VALID,104,VALID,0.112112,VALID,21.4523,VALID,310,VALID,0,
2014-01-29, 02:11:04,VALID,1010.09,VALID,0,VALID,104,VALID,0.112112,VALID,21.4523,VALID,308,VALID,0,
2014-01-29, 02:12:04,VALID,1010.09,VALID,0,VALID,104,VALID,0.112112,VALID,21.4523,VALID,310,VALID,0,
2014-01-29, 02:13:04,VALID,1010.07,VALID,0,VALID,104,VALID,0.112112,VALID,21.4328,VALID,310,VALID,0,
2014-01-29, 02:14:04,VALID,1010.06,VALID,0,VALID,104,VALID,0.112112,VALID,21.4345,VALID,309,VALID,0,
2014-01-29, 02:15:04,VALID,1010.03,VALID,0,VALID,104,VALID,0.112112,VALID,21.3939,VALID,309,VALID,0,
2014-01-29, 02:16:04,VALID,1010.02,VALID,0,VALID,104,VALID,0,VALID,21.415,VALID,309,VALID,0,
2014-01-29, 02:17:04,VALID,1009.99,VALID,0,VALID,104,VALID,0,VALID,21.3955,VALID,309,VALID,0,
2014-01-29, 02:18:04,VALID,1010.01,VALID,0,VALID,104,VALID,0,VALID,21.415,VALID,309,VALID,0,
2014-01-29, 02:19:04,VALID,1010.02,VALID,0,VALID,104,VALID,0,VALID,21.415,VALID,309,VALID,0,
2014-01-29, 02:20:04,VALID,1010,VALID,0,VALID,104,VALID,0,VALID,21.4539,VALID,309,VALID,0,
2014-01-29, 02:21:04,VALID,1010.01,VALID,0,VALID,104,VALID,0,VALID,21.4539,VALID,309,VALID,0,
2014-01-29, 02:22:04,VALID,1009.99,VALID,0,VALID,104,VALID,0,VALID,21.4734,VALID,309,VALID,0,
2014-01-29, 02:23:04,VALID,1010,VALID,0,VALID,104,VALID,0,VALID,21.4929,VALID,309,VALID,0,
2014-01-29, 02:24:04,VALID,1009.98,VALID,0,VALID,104,VALID,0,VALID,21.4734,VALID,309,VALID,0,
2014-01-29, 02:25:04,VALID,1009.99,VALID,0,VALID,104,VALID,0,VALID,21.4539,VALID,309,VALID,0,
2014-01-29, 02:26:04,VALID,1009.96,VALID,0,VALID,104,VALID,0,VALID,21.4345,VALID,309,VALID,0,
2014-01-29, 02:27:04,VALID,1009.94,VALID,0,VALID,104,VALID,0,VALID,21.3955,VALID,309,VALID,0,
2014-01-29, 02:28:04,VALID,1009.93,VALID,0,VALID,104,VALID,0,VALID,21.3955,VALID,310,VALID,0,
2014-01-29, 02:29:04,VALID,1009.95,VALID,0,VALID,104,VALID,0,VALID,21.376,VALID,309,VALID,0,
2014-01-29, 02:30:04,VALID,1009.93,VALID,0,VALID,104,VALID,0,VALID,21.415,VALID,309,VALID,0,
2014-01-29, 02:31:04,VALID,1009.96,VALID,0,VALID,104,VALID,0,VALID,21.415,VALID,309,VALID,0,
2014-01-29, 02:32:04,VALID,1009.96,VALID,0,VALID,104,VALID,0,VALID,21.415,VALID,309,VALID,0,
2014-01-29, 02:33:04,VALID,1009.97,VALID,0,VALID,104,VALID,0,VALID,21.3955,VALID,309,VALID,0,
2014-01-29, 02:34:04,VALID,1009.95,VALID,0,VALID,104,VALID,0,VALID,21.3971,VALID,309,VALID,0,
2014-01-29, 02:35:04,VALID,1009.98,VALID,0,VALID,104,VALID,0,VALID,21.3566,VALID,309,VALID,0,
2014-01-29, 02:36:04,VALID,1009.97,VALID,0,VALID,104,VALID,0,VALID,21.3371,VALID,309,VALID,0,
2014-01-29, 02:37:04,VALID,1010,VALID,0,VALID,104,VALID,0,VALID,21.2982,VALID,309,VALID,0,
2014-01-29, 02:38:04,VALID,1010,VALID,0,VALID,104,VALID,0,VALID,21.2787,VALID,309,VALID,0,
2014-01-29, 02:39:04,VALID,1009.96,VALID,0,VALID,104,VALID,0,VALID,21.2982,VALID,310,VALID,0,
2014-01-29, 02:40:04,VALID,1009.97,VALID,0,VALID,104,VALID,0,VALID,21.2203,VALID,309,VALID,0,
2014-01-29, 02:41:04,VALID,1009.96,VALID,0,VALID,104,VALID,0,VALID,21.1813,VALID,309,VALID,0,
2014-01-29, 02:42:04,VALID,1009.97,VALID,0,VALID,104,VALID,0,VALID,21.1424,VALID,309,VALID,0,
2014-01-29, 02:43:04,VALID,1009.97,VALID,0,VALID,104,VALID,0,VALID,21.1229,VALID,309,VALID,0,
2014-01-29, 02:44:04,VALID,1010.01,VALID,0,VALID,104,VALID,0,VALID,21.1229,VALID,309,VALID,0,
2014-01-29, 02:45:04,VALID,1010.01,VALID,0,VALID,104,VALID,0,VALID,21.1635,VALID,309,VALID,0,
2014-01-29, 02:46:04,VALID,1010.01,VALID,0,VALID,104,VALID,0,VALID,21.1619,VALID,309,VALID,0,
2014-01-29, 02:47:04,VALID,1010.02,VALID,0,VALID,104,VALID,0,VALID,21.2008,VALID,309,VALID,0,
2014-01-29, 02:48:04,VALID,1010.02,VALID,0,VALID,104,VALID,0,VALID,21.2203,VALID,309,VALID,0,
2014-01-29, 02:49:04,VALID,1010.03,VALID,0,VALID,104,VALID,0,VALID,21.1619,VALID,309,VALID,0,
2014-01-29, 02:50:04,VALID,1010.02,VALID,0,VALID,104,VALID,0,VALID,21.1619,VALID,309,VALID,0,
2014-01-29, 02:51:04,VALID,1010.03,VALID,0,VALID,104,VALID,0,VALID,21.1424,VALID,309,VALID,0,
2014-01-29, 02:52:04,VALID,1010.01,VALID,0,VALID,104,VALID,0,VALID,21.1424,VALID,309,VALID,0,
2014-01-29, 02:53:04,VALID,1010,VALID,0,VALID,104,VALID,0,VALID,21.1035,VALID,309,VALID,0,
2014-01-29, 02:54:04,VALID,1010.02,VALID,0,VALID,104,VALID,0,VALID,21.084,VALID,309,VALID,0,
2014-01-29, 02:55:04,VALID,1010.03,VALID,0,VALID,104,VALID,0,VALID,21.0645,VALID,309,VALID,0,
2014-01-29, 02:56:04,VALID,1010.02,VALID,0,VALID,104,VALID,0,VALID,21.1051,VALID,309,VALID,0,
2014-01-29, 02:57:04,VALID,1010.05,VALID,0,VALID,104,VALID,0,VALID,21.045,VALID,309,VALID,0,
2014-01-29, 02:58:04,VALID,1010.07,VALID,0,VALID,104,VALID,0,VALID,21.045,VALID,310,VALID,0,
2014-01-29, 02:59:04,VALID,1010.05,VALID,0,VALID,104,VALID,0,VALID,21.0645,VALID,310,VALID,0,
2014-01-29, 03:00:04,VALID,1010.04,VALID,0,VALID,104,VALID,0,VALID,21.0645,VALID,310,VALID,0,
2014-01-29, 03:01:04,VALID,1010.03,VALID,0,VALID,104,VALID,0.112112,VALID,21.0824,VALID,309,VALID,0,
2014-01-29, 03:02:04,VALID,1010.07,VALID,0,VALID,104,VALID,0.112112,VALID,21.1019,VALID,309,VALID,0,
2014-01-29, 03:03:04,VALID,1010.08,VALID,0,VALID,104,VALID,0,VALID,21.1229,VALID,309,VALID,0,
2014-01-29, 03:04:04,VALID,1010.08,VALID,0,VALID,104,VALID,0.112112,VALID,21.0824,VALID,309,VALID,0,
2014-01-29, 03:05:04,VALID,1010.08,VALID,0,VALID,104,VALID,0.112112,VALID,21.0434,VALID,310,VALID,0,
2014-01-29, 03:06:04,VALID,1010.08,VALID,0,VALID,104,VALID,0.112112,VALID,21.024,VALID,309,VALID,0,
2014-01-29, 03:07:04,VALID,1010.1,VALID,0,VALID,104,VALID,0.112112,VALID,21.0045,VALID,309,VALID,0,
2014-01-29, 03:08:04,VALID,1010.06,VALID,0,VALID,104,VALID,0.112112,VALID,20.9656,VALID,309,VALID,0,
2014-01-29, 03:09:04,VALID,1010.05,VALID,0,VALID,104,VALID,0.112112,VALID,20.9656,VALID,309,VALID,0,
2014-01-29, 03:10:04,VALID,1010.04,VALID,0,VALID,104,VALID,0.112112,VALID,20.9461,VALID,310,VALID,0,
2014-01-29, 03:11:04,VALID,1010.04,VALID,0,VALID,104,VALID,0.112112,VALID,20.9461,VALID,310,VALID,0,
2014-01-29, 03:12:04,VALID,1010.05,VALID,0,VALID,104,VALID,0.112112,VALID,20.9866,VALID,309,VALID,0,
2014-01-29, 03:13:04,VALID,1010.07,VALID,0,VALID,104,VALID,0,VALID,21.024,VALID,310,VALID,0,
2014-01-29, 03:14:04,VALID,1010.05,VALID,0,VALID,104,VALID,0.112112,VALID,20.9672,VALID,310,VALID,0,
2014-01-29, 03:15:04,VALID,1010.04,VALID,0,VALID,104,VALID,0.112112,VALID,20.9672,VALID,309,VALID,0,
2014-01-29, 03:16:04,VALID,1010.01,VALID,0,VALID,104,VALID,0.112112,VALID,20.9656,VALID,309,VALID,0,
2014-01-29, 03:17:04,VALID,1010.02,VALID,0,VALID,104,VALID,0,VALID,20.985,VALID,310,VALID,0,
2014-01-29, 03:18:04,VALID,1010.02,VALID,0,VALID,104,VALID,0.112112,VALID,21.0256,VALID,309,VALID,0,
2014-01-29, 03:19:04,VALID,1010.03,VALID,0,VALID,104,VALID,0.112112,VALID,21.0045,VALID,310,VALID,0,
2014-01-29, 03:20:04,VALID,1010.03,VALID,0,VALID,104,VALID,0.112112,VALID,20.985,VALID,310,VALID,0,
2014-01-29, 03:21:04,VALID,1010.03,VALID,0,VALID,104,VALID,0,VALID,20.9266,VALID,309,VALID,0,
2014-01-29, 03:22:04,VALID,1010.02,VALID,0,VALID,104,VALID,0.112112,VALID,20.8877,VALID,309,VALID,0,
2014-01-29, 03:23:04,VALID,1010,VALID,0,VALID,104,VALID,0.112112,VALID,20.8682,VALID,309,VALID,0,
2014-01-29, 03:24:04,VALID,1010.01,VALID,0,VALID,104,VALID,0.112112,VALID,20.8682,VALID,309,VALID,0,
2014-01-29, 03:25:04,VALID,1009.99,VALID,0,VALID,104,VALID,0.112112,VALID,20.8682,VALID,309,VALID,0,
2014-01-29, 03:26:04,VALID,1010.01,VALID,0,VALID,104,VALID,0,VALID,20.8098,VALID,309,VALID,0,
2014-01-29, 03:27:04,VALID,1010,VALID,0,VALID,104,VALID,0.112112,VALID,20.8309,VALID,310,VALID,0,
2014-01-29, 03:28:04,VALID,1009.97,VALID,0,VALID,104,VALID,0,VALID,20.8293,VALID,310,VALID,0,
2014-01-29, 03:29:04,VALID,1009.98,VALID,0,VALID,104,VALID,0.112112,VALID,20.8698,VALID,309,VALID,0,
2014-01-29, 03:30:04,VALID,1009.95,VALID,0,VALID,104,VALID,0.112112,VALID,20.9088,VALID,309,VALID,0,
2014-01-29, 03:31:04,VALID,1009.97,VALID,0,VALID,104,VALID,0,VALID,20.9493,VALID,310,VALID,0,
2014-01-29, 03:32:04,VALID,1009.94,VALID,0,VALID,104,VALID,0,VALID,20.9493,VALID,309,VALID,0,
2014-01-29, 03:33:04,VALID,1009.94,VALID,0,VALID,104,VALID,0,VALID,20.9298,VALID,310,VALID,0,
2014-01-29, 03:34:04,VALID,1009.93,VALID,0,VALID,104,VALID,0,VALID,20.9298,VALID,310,VALID,0,
2014-01-29, 03:35:04,VALID,1009.94,VALID,0,VALID,104,VALID,0,VALID,20.9088,VALID,310,VALID,0,
2014-01-29, 03:36:04,VALID,1009.94,VALID,0,VALID,104,VALID,0,VALID,20.9282,VALID,310,VALID,0,
2014-01-29, 03:37:04,VALID,1009.92,VALID,0,VALID,104,VALID,0,VALID,20.9672,VALID,309,VALID,0,
2014-01-29, 03:38:04,VALID,1009.93,VALID,0,VALID,104,VALID,0,VALID,20.9477,VALID,309,VALID,0,
2014-01-29, 03:39:04,VALID,1009.91,VALID,0,VALID,104,VALID,0,VALID,20.9477,VALID,310,VALID,0,
2014-01-29, 03:40:04,VALID,1009.95,VALID,0,VALID,104,VALID,0,VALID,20.9688,VALID,309,VALID,0,
2014-01-29, 03:41:04,VALID,1009.97,VALID,0,VALID,104,VALID,0,VALID,20.9298,VALID,310,VALID,0,
2014-01-29, 03:42:04,VALID,1009.96,VALID,0,VALID,104,VALID,0,VALID,20.9282,VALID,309,VALID,0,
2014-01-29, 03:43:04,VALID,1009.93,VALID,0,VALID,104,VALID,0,VALID,20.9298,VALID,310,VALID,0,
2014-01-29, 03:44:04,VALID,1009.96,VALID,0,VALID,104,VALID,0,VALID,20.8909,VALID,309,VALID,0,
2014-01-29, 03:45:04,VALID,1009.96,VALID,0,VALID,104,VALID,0,VALID,20.9103,VALID,309,VALID,0,
2014-01-29, 03:46:04,VALID,1009.96,VALID,0,VALID,104,VALID,0,VALID,20.8682,VALID,310,VALID,0,
2014-01-29, 03:47:04,VALID,1009.97,VALID,0,VALID,104,VALID,0,VALID,20.8893,VALID,309,VALID,0,
2014-01-29, 03:48:04,VALID,1009.97,VALID,0,VALID,104,VALID,0,VALID,20.9088,VALID,309,VALID,0,
2014-01-29, 03:49:04,VALID,1009.99,VALID,0,VALID,104,VALID,0,VALID,20.8877,VALID,309,VALID,0,
2014-01-29, 03:50:04,VALID,1010.01,VALID,0,VALID,104,VALID,0,VALID,20.9282,VALID,309,VALID,0,
2014-01-29, 03:51:04,VALID,1010.01,VALID,0,VALID,104,VALID,0,VALID,20.9282,VALID,309,VALID,0,
2014-01-29, 03:52:04,VALID,1010.02,VALID,0,VALID,104,VALID,0,VALID,20.9477,VALID,309,VALID,0,
2014-01-29, 03:53:04,VALID,1010,VALID,0,VALID,104,VALID,0,VALID,20.9672,VALID,309,VALID,0,
2014-01-29, 03:54:04,VALID,1009.99,VALID,0,VALID,104,VALID,0,VALID,20.9672,VALID,309,VALID,0,
2014-01-29, 03:55:04,VALID,1009.98,VALID,0,VALID,104,VALID,0,VALID,20.9866,VALID,309,VALID,0,
2014-01-29, 03:56:04,VALID,1009.98,VALID,0,VALID,104,VALID,0,VALID,20.9866,VALID,309,VALID,0,
2014-01-29, 03:57:04,VALID,1009.98,VALID,0,VALID,104,VALID,0,VALID,21.0061,VALID,309,VALID,0,
2014-01-29, 03:58:04,VALID,1009.98,VALID,0,VALID,104,VALID,0.112112,VALID,21.0466,VALID,309,VALID,0,
2014-01-29, 03:59:04,VALID,1009.98,VALID,0,VALID,104,VALID,0.112112,VALID,21.024,VALID,309,VALID,0,
2014-01-29, 04:00:04,VALID,1009.99,VALID,0,VALID,104,VALID,0,VALID,21.0434,VALID,309,VALID,0,
2014-01-29, 04:01:04,VALID,1010,VALID,0,VALID,104,VALID,0,VALID,21.084,VALID,309,VALID,0,
2014-01-29, 04:02:04,VALID,1009.98,VALID,0,VALID,104,VALID,0,VALID,21.084,VALID,309,VALID,0,